[[{"header":{"parameterUnit":"m.s-1","parameterCategory":1,"la1":30.2991,"la2":30.254,"lo1":-89.0895,"lo2":-89.0444,"dy":0.0017,"dx":0.0017,"nx":28,"ny":28,"refTime":"2024-07-17T21:00:00:Z","depth":0,"parameterNumber":2,"parameterNumberName":"U-component_of_WINDS"},"data":[0,0,0,0,0,0,0,0,0,0,0,0,0,0,0,0,0,0,0,0,0,0,0,0,0,0,0,0,0,0,0,0,0,0,0,0,0,0,0,0,0,0,0,0,0,0,0,0,0,0,0,0,0,0,0,0,0,0,2.3848,2.3848,0,2.386,2.3861,2.3861,2.3848,2.3848,2.3847,2.3847,2.386,2.3861,2.3862,0,0,0,0,0,0,0,0,0,0,0,0,0,2.3815,2.3815,2.3848,2.3848,2.3849,2.386,2.3861,2.3861,2.3848,2.3848,2.3847,2.3846,2.386,2.3861,2.3862,0,0,0,0,0,0,0,0,0,0,0,0,0,2.3828,2.3816,2.3848,2.3844,2.3843,2.386,2.3861,2.3861,2.3848,2.3848,2.3847,2.3846,2.3859,2.3861,2.3862,2.3884,0,0,2.3866,2.3866,0,0,0,0,0,0,0,0,2.3828,2.383,2.3844,2.3844,2.3844,2.3852,2.3854,2.3869,2.3849,2.3847,2.3847,2.3846,2.3858,2.3859,2.3863,2.3885,2.3885,2.3866,2.3866,2.3867,2.3867,0,0,0,0,0,0,0,2.3827,2.3829,2.3853,2.3845,2.3844,2.3841,2.3842,2.3856,2.3856,2.3847,2.3846,2.3847,2.3858,2.3862,2.3863,2.3885,2.3866,2.3867,2.3867,2.3868,2.3925,2.3926,0,0,0,0,0,0,2.3826,2.3828,2.3853,2.3854,2.3834,2.3842,2.3844,2.385,2.3856,2.3856,2.3848,2.3847,2.386,2.3862,2.3864,2.389,2.3867,2.3868,2.3869,2.3924,2.3925,2.3926,0,0,0,0,0,0,2.3825,2.3828,2.3852,2.3841,2.3843,2.3844,2.3851,2.3851,2.3855,2.3857,2.3857,2.3852,2.386,2.3862,2.3879,2.389,2.3869,2.387,2.3923,2.3924,2.3925,2.3942,0,0,0,0,0,0,2.3824,2.3828,2.3837,2.3841,2.3844,2.3867,2.3852,2.3852,2.3857,2.3856,2.3861,2.3861,2.3859,2.3877,2.388,2.3891,2.3871,2.3922,2.3924,2.3925,2.394,2.3943,2.3946,0,0,0,0,0,2.3823,2.3841,2.3837,2.384,2.3855,2.3868,2.387,2.3867,2.3858,2.3866,2.3868,2.3861,2.3888,2.3879,2.3882,2.3894,2.3921,2.3923,2.3925,2.3939,2.3943,2.3946,0,0,0,0,0,0,2.3839,2.3842,2.3837,2.3857,2.3862,2.3866,2.3876,2.3871,2.3879,2.3877,2.3874,2.3875,2.3892,2.3895,2.3884,2.3915,2.3903,2.3906,2.3913,2.3917,2.3919,2.3918,2.3872,0,0,0,0,0,2.3844,2.3854,2.3857,2.3874,2.3877,2.3876,2.3882,2.3879,2.3884,2.3886,2.3889,2.3894,2.3904,2.391,2.392,2.394,2.3941,2.395,2.3953,2.3955,2.3957,2.3968,2.3972,2.3932,2.3932,2.3932,0,0,2.3856,2.3859,2.3866,2.3877,2.3881,2.3891,2.3878,2.389,2.3898,2.3888,2.3904,2.3906,2.3912,2.393,2.3939,2.3933,2.3969,2.3958,2.3959,2.396,2.397,2.3974,2.3977,2.3933,2.3933,2.3932,0,0,2.3883,2.3886,2.3901,2.3904,2.391,2.3909,2.3913,2.3917,2.3917,2.3933,2.3926,2.3935,2.3952,2.3956,2.3961,2.3988,2.3983,2.3992,2.4006,2.4017,2.402,2.4023,2.4032,2.4035,2.3994,2.3994,2.3994,0,2.3897,2.3912,2.3909,2.3921,2.3926,2.3917,2.3931,2.3935,2.3944,2.3947,2.3941,2.3961,2.3965,2.3984,2.399,2.3994,2.3998,2.3991,2.402,2.4022,2.4025,2.4034,2.4037,2.3995,2.3995,2.3995,2.3994,0,2.3929,2.394,2.3951,2.3958,2.3965,2.3978,2.3976,2.3983,2.3979,2.3979,2.3995,2.3999,2.4008,2.4012,2.401,2.4031,2.4027,2.402,2.4008,2.403,2.4038,2.4041,2.3996,2.3996,2.3996,2.3995,0,0,2.3966,2.3971,2.3975,2.3978,2.3983,2.3991,2.4004,2.4013,2.4018,2.4024,2.4034,2.4049,2.4042,2.4047,2.4044,2.4053,2.4074,2.4045,2.4045,2.405,2.4097,2.4102,2.4106,2.407,2.4071,2.4072,2.4096,0,2.3992,2.4014,2.4011,2.4031,2.4041,2.4033,2.4044,2.4048,2.4048,2.4057,2.4057,2.4067,2.4058,2.406,2.4069,2.407,2.4083,2.4068,2.408,2.408,2.4078,2.411,2.4116,2.4139,2.41,2.41,2.4101,0,2.4026,2.4032,2.4054,2.4057,2.4061,2.4071,2.4078,2.4086,2.4091,2.409,2.4095,2.4091,2.4103,2.4091,2.4108,2.4098,2.4102,2.4103,2.4104,2.4105,2.4091,2.4111,2.4146,2.415,2.4106,2.4105,2.4105,0,2.405,2.4064,2.4079,2.4082,2.4086,2.4093,2.4095,2.4098,2.4104,2.411,2.4113,2.4121,2.4125,2.4132,2.4129,2.4121,2.4147,2.4135,2.4146,2.4146,2.4152,2.4151,2.4187,2.4156,2.4155,2.4155,2.4155,0,2.4079,2.4093,2.4089,2.4098,2.4113,2.4109,2.4124,2.4125,2.4128,2.4137,2.413,2.4139,2.4136,2.4144,2.4142,2.4156,2.4158,2.4158,2.4157,2.4158,2.4158,2.4161,2.4159,2.4156,2.4156,2.4156,2.4156,0,2.4109,2.4107,2.4122,2.4124,2.4125,2.4136,2.4138,2.4146,2.4145,2.4157,2.4159,2.4158,2.4168,2.4166,2.4177,2.4175,2.4192,2.419,2.4191,2.419,2.4201,2.42,2.424,2.4245,2.4211,2.4211,2.4211,0,2.4127,2.4137,2.414,2.4145,2.4148,2.4157,2.4161,2.4158,2.4163,2.4169,2.4176,2.4185,2.4192,2.4207,2.4207,2.4215,2.4213,2.4226,2.4214,2.4214,2.4212,2.4211,2.4212,2.4228,2.4229,2.4229,2.4229,0,2.416,2.4159,2.4166,2.4173,2.4179,2.4184,2.4189,2.4194,2.419,2.4197,2.4206,2.4211,2.4221,2.423,2.4237,2.4239,2.4233,2.4233,2.4236,2.4237,2.4237,2.4236,2.4197,2.4232,2.4232,2.4232,2.4232,2.4231,2.4184,2.4192,2.4196,2.4204,2.4207,2.4211,2.4219,2.4219,2.4226,2.4234,2.4232,2.4242,2.4246,2.4254,2.4257,2.4265,2.426,2.4265,2.4266,2.4267,2.4268,2.4236,2.4266,2.4266,2.4266,2.4266,2.4266,0,2.4216,2.4218,2.4225,2.4232,2.4238,2.4232,2.4237,2.4242,2.4251,2.4255,2.4262,2.4272,2.428,2.4281,2.4288,2.4294,2.4292,2.4296,2.4295,2.4296,2.4272,2.4268,2.4298,2.4298,2.4298,2.4298,2.4298,2.4298,2.4234,2.4247,2.4246,2.426,2.4262,2.4271,2.4274,2.4278,2.4281,2.4292,2.4299,2.4299,2.4302,2.4309,2.4316,2.4316,2.4319,2.4324,2.4323,2.4301,2.4298,2.4295,2.4291,2.4325,2.4325,2.4346,2.4346,2.4347]},{"header":{"parameterUnit":"m.s-1","parameterCategory":1,"la1":30.2991,"la2":30.254,"lo1":-89.0895,"lo2":-89.0444,"dy":0.0017,"dx":0.0017,"nx":28,"ny":28,"refTime":"2024-07-17T21:00:00:Z","depth":0,"parameterNumber":3,"parameterNumberName":"V-component_of_WINDS"},"data":[0,0,0,0,0,0,0,0,0,0,0,0,0,0,0,0,0,0,0,0,0,0,0,0,0,0,0,0,0,0,0,0,0,0,0,0,0,0,0,0,0,0,0,0,0,0,0,0,0,0,0,0,0,0,0,0,0,0,1.5508,1.5508,0,1.551,1.551,1.551,1.5526,1.5526,1.5526,1.5527,1.5529,1.5528,1.5528,0,0,0,0,0,0,0,0,0,0,0,0,0,1.5517,1.5517,1.5508,1.5508,1.5508,1.551,1.551,1.551,1.5526,1.5526,1.5526,1.5527,1.5529,1.5528,1.5528,0,0,0,0,0,0,0,0,0,0,0,0,0,1.5515,1.5517,1.5508,1.5516,1.5517,1.551,1.551,1.551,1.5525,1.5526,1.5527,1.5527,1.5529,1.5528,1.5528,1.5514,0,0,1.5526,1.5526,0,0,0,0,0,0,0,0,1.5515,1.5515,1.5515,1.5516,1.5516,1.5518,1.5514,1.5511,1.5525,1.5522,1.5527,1.5527,1.5525,1.5525,1.5524,1.5514,1.5514,1.5526,1.5526,1.5526,1.5526,0,0,0,0,0,0,0,1.5516,1.5515,1.5509,1.5515,1.5516,1.5519,1.552,1.5514,1.552,1.5523,1.5524,1.5524,1.5525,1.5524,1.5524,1.5514,1.5526,1.5526,1.5526,1.5526,1.5491,1.5491,0,0,0,0,0,0,1.5515,1.5515,1.5509,1.5509,1.5517,1.5519,1.5519,1.5517,1.552,1.5521,1.5523,1.5524,1.5525,1.5524,1.5524,1.5507,1.5526,1.5526,1.5525,1.5492,1.5491,1.549,0,0,0,0,0,0,1.5515,1.5514,1.5509,1.5512,1.5512,1.5518,1.5516,1.5517,1.5516,1.5521,1.5522,1.5521,1.5525,1.5525,1.5516,1.5507,1.5525,1.5525,1.5493,1.5492,1.5491,1.5472,0,0,0,0,0,0,1.5515,1.5514,1.5509,1.5512,1.5512,1.5501,1.5515,1.5516,1.5515,1.5517,1.5519,1.552,1.5525,1.5516,1.5515,1.5507,1.5525,1.5494,1.5492,1.5491,1.5474,1.5471,1.5469,0,0,0,0,0,1.5515,1.5504,1.5509,1.5508,1.5506,1.5501,1.55,1.5507,1.5514,1.5509,1.5512,1.552,1.5508,1.5515,1.5514,1.5505,1.5494,1.5493,1.5491,1.5475,1.5472,1.5469,0,0,0,0,0,0,1.5499,1.5504,1.551,1.5499,1.5499,1.5503,1.5497,1.5503,1.5501,1.5503,1.5511,1.5511,1.5501,1.5503,1.551,1.5491,1.5502,1.5501,1.5491,1.5487,1.5485,1.5484,1.5524,0,0,0,0,0,1.5495,1.549,1.5495,1.5485,1.5485,1.5491,1.5489,1.5494,1.5494,1.5494,1.5497,1.5497,1.5493,1.549,1.5487,1.5474,1.5475,1.5468,1.5465,1.5463,1.5461,1.5453,1.545,1.5486,1.5486,1.5486,0,0,1.5485,1.5487,1.5484,1.5482,1.5483,1.5478,1.5491,1.5485,1.5481,1.5493,1.5485,1.5487,1.5487,1.5476,1.5471,1.5477,1.5451,1.5461,1.5459,1.5458,1.5451,1.5448,1.5445,1.5485,1.5485,1.5485,0,0,1.5464,1.5466,1.5458,1.5458,1.5459,1.5462,1.546,1.5463,1.5464,1.5456,1.5465,1.546,1.5454,1.5454,1.5453,1.5431,1.5438,1.543,1.5415,1.5408,1.5405,1.5402,1.5393,1.539,1.5428,1.5428,1.5428,0,1.5452,1.5445,1.5452,1.5446,1.5444,1.5455,1.5446,1.5446,1.5445,1.5444,1.545,1.5442,1.5443,1.5431,1.5426,1.5425,1.5422,1.5429,1.5405,1.5402,1.54,1.5391,1.5388,1.5427,1.5427,1.5427,1.5427,0,1.5429,1.5424,1.5417,1.5416,1.5414,1.5406,1.5412,1.5408,1.5413,1.5416,1.5407,1.5409,1.5406,1.5404,1.5409,1.5392,1.5395,1.5403,1.5414,1.5395,1.5387,1.5384,1.5425,1.5426,1.5426,1.5426,0,0,1.5399,1.5402,1.5399,1.5398,1.5399,1.5395,1.5387,1.5384,1.5381,1.538,1.5373,1.5367,1.5374,1.5373,1.5378,1.5371,1.5352,1.5379,1.5379,1.5373,1.5333,1.5326,1.5322,1.5357,1.5356,1.5356,1.5332,0,1.5378,1.5365,1.5371,1.5358,1.5352,1.5362,1.5355,1.5355,1.5357,1.5353,1.5355,1.535,1.536,1.536,1.5353,1.5356,1.5344,1.5358,1.535,1.5349,1.5348,1.5319,1.5312,1.529,1.5329,1.5329,1.5329,0,1.5353,1.535,1.5336,1.5337,1.5335,1.5329,1.5325,1.5321,1.5321,1.5323,1.5321,1.5327,1.5319,1.5331,1.5319,1.5329,1.5326,1.5326,1.5326,1.5325,1.5337,1.5316,1.5283,1.5279,1.5324,1.5324,1.5325,0,1.533,1.5324,1.5314,1.5313,1.5314,1.531,1.531,1.531,1.5307,1.5305,1.5303,1.5299,1.5297,1.5294,1.5299,1.5307,1.5286,1.5299,1.5287,1.5287,1.5282,1.5282,1.5247,1.5282,1.5282,1.5282,1.5282,0,1.5306,1.5297,1.5304,1.5298,1.5287,1.5294,1.5283,1.5284,1.5284,1.5278,1.5287,1.5281,1.5288,1.5283,1.5286,1.5276,1.5275,1.5276,1.5277,1.5274,1.5274,1.5272,1.5273,1.5281,1.5281,1.5281,1.5281,0,1.528,1.5284,1.5274,1.5276,1.5276,1.5268,1.5269,1.5263,1.5266,1.5258,1.5257,1.5261,1.5255,1.526,1.5254,1.5256,1.5242,1.5245,1.5242,1.5242,1.523,1.5231,1.5192,1.5187,1.5225,1.5225,1.5225,0,1.5263,1.5256,1.5257,1.5254,1.5253,1.5248,1.5245,1.5251,1.5248,1.5246,1.524,1.5234,1.523,1.522,1.5222,1.5218,1.5221,1.5207,1.522,1.5217,1.5219,1.5219,1.5218,1.5204,1.5204,1.5204,1.5203,0,1.5234,1.5236,1.5232,1.5228,1.5224,1.5221,1.5219,1.5216,1.5222,1.5217,1.5211,1.5208,1.5201,1.5196,1.5191,1.5192,1.5198,1.5199,1.5196,1.5193,1.5191,1.5191,1.5234,1.52,1.52,1.5201,1.5201,1.5201,1.5211,1.5205,1.5204,1.5199,1.5198,1.5195,1.5189,1.5191,1.5186,1.5181,1.5185,1.5177,1.5176,1.5171,1.517,1.5164,1.5169,1.5165,1.5164,1.5162,1.516,1.5193,1.5163,1.5163,1.5163,1.5163,1.5164,0,1.5181,1.5181,1.5176,1.5172,1.5168,1.5175,1.5172,1.5168,1.5161,1.5159,1.5155,1.5147,1.5141,1.5142,1.5137,1.5131,1.5134,1.513,1.513,1.5129,1.5156,1.5159,1.5127,1.5127,1.5127,1.5127,1.5127,1.5127,1.5165,1.5154,1.5156,1.5145,1.5145,1.5137,1.5135,1.5132,1.5131,1.5121,1.5116,1.5118,1.5117,1.5111,1.5106,1.5106,1.5104,1.5098,1.5099,1.5124,1.5128,1.5131,1.5133,1.5097,1.5097,1.5073,1.5073,1.5072]}]]